Date,TemperatureHighF,TemperatureAvgF,TemperatureLowF,DewpointHighF,DewpointAvgF,DewpointLowF,HumidityHigh,HumidityAvg,HumidityLow,PressureMaxIn,PressureMinIn,WindSpeedMaxMPH,WindSpeedAvgMPH,GustSpeedMaxMPH,PrecipitationSumIn
2013-1-1,48,41,36,48,40,36,99,95,81,30.05,29.50,3,1,14,0.05
2013-1-2,51,44,35,51,44,35,99,99,99,30.32,30.05,3,1,14,0.02
2013-1-3,53,51,48,53,51,48,99,99,99,30.61,30.32,3,2,12,0.00
2013-1-4,51,50,47,51,49,46,99,96,88,30.65,30.60,3,2,14,0.00
2013-1-5,52,49,43,52,48,43,99,99,98,30.59,30.51,3,1,13,0.00
2013-1-6,47,45,42,47,45,42,99,99,99,30.51,30.38,2,0,12,0.00
2013-1-7,47,45,45,46,45,44,99,99,99,30.38,30.30,2,0,7,0.02
2013-1-9,46,36,31,45,36,30,99,99,96,30.13,30.06,0,0,2,0.12
2013-1-10,40,35,30,40,35,30,99,99,99,30.06,29.91,2,0,8,0.02
2013-1-11,45,37,32,44,37,32,99,99,96,30.07,29.96,2,0,5,0.00
2013-1-12,41,38,34,39,36,32,99,92,73,29.96,29.82,6,2,19,0.21
2013-1-13,39,35,31,38,32,30,99,88,76,30.13,29.94,3,1,13,0.00
2013-1-14,36,33,31,36,33,30,99,99,96,30.09,29.62,3,1,12,0.23
2013-1-15,37,33,26,35,32,26,99,97,88,29.86,29.62,4,1,15,0.02
2013-1-16,34,28,24,33,28,23,99,98,92,30.01,29.81,2,0,6,0.00
2013-1-17,31,26,23,31,26,23,99,99,99,30.06,30.01,0,0,2,0.00
2013-1-27,50,46,45,39,38,37,99,91,64,29.62,29.47,6,2,21,0.41
2013-1-28,51,47,45,51,43,38,99,98,92,29.81,29.52,7,3,30,0.20
2013-1-29,56,53,49,56,53,48,99,99,94,29.65,29.56,6,4,29,0.08
2013-1-30,54,51,47,54,46,39,99,85,62,30.04,29.51,8,5,29,0.23
2013-1-31,51,49,46,48,44,39,99,85,69,30.04,29.79,7,4,27,0.08
2013-2-1,47,42,35,45,41,35,99,97,88,29.85,29.45,3,1,14,0.35
2013-2-2,43,38,29,40,33,26,99,82,64,30.24,29.60,5,2,17,0.02
2013-2-3,50,41,29,49,40,26,99,95,88,30.24,29.91,6,2,20,0.00
2013-2-4,52,48,43,50,42,36,99,82,59,29.95,29.73,6,4,21,0.00
2013-2-5,44,40,35,40,34,27,99,81,56,29.71,29.34,7,4,29,0.07
2013-2-6,43,40,35,41,35,28,99,83,69,30.06,29.36,6,3,21,0.12
2013-2-7,43,36,30,33,29,26,92,78,64,30.10,30.02,3,2,12,0.00
2013-2-10,36,36,35,36,36,34,99,99,99,29.26,29.25,2,1,8,0.50
2013-2-11,35,34,33,35,34,33,99,99,99,29.75,29.26,2,1,8,0.28
2013-2-12,37,34,33,34,32,30,99,92,86,30.12,29.75,2,0,7,0.00
2013-2-13,40,35,32,40,33,28,99,90,73,30.19,29.96,3,1,17,0.02
2013-2-14,54,46,38,48,44,38,99,93,71,29.97,29.73,5,2,15,0.13
2013-2-15,50,40,33,44,38,32,99,90,62,30.19,29.98,2,0,8,0.00
2013-2-16,52,42,34,44,39,34,99,90,63,30.23,30.18,2,0,10,0.00
2013-2-17,51,38,29,42,35,28,99,89,57,30.19,30.07,5,1,14,0.00
2013-2-18,48,37,30,40,34,29,99,90,65,30.12,30.06,4,1,12,0.00
2013-2-19,50,35,26,42,32,26,99,91,61,30.11,30.03,1,0,4,0.00
2013-2-20,42,37,30,39,33,28,99,86,68,30.23,30.06,5,2,20,0.02
2013-2-21,37,34,31,28,23,20,77,65,55,30.23,30.13,5,3,21,0.00
2013-2-22,36,34,33,26,23,21,75,65,60,30.13,30.06,3,2,14,0.00
2013-2-23,36,33,32,29,27,26,81,78,74,30.11,30.05,2,2,10,0.00
2013-3-13,45,39,29,33,29,26,96,69,50,29.93,29.78,4,2,16,0.00
2013-3-14,45,35,24,34,26,22,99,73,43,30.01,29.91,3,1,11,0.00
2013-3-15,49,43,35,45,40,27,99,91,71,29.91,29.54,6,3,22,0.17
2013-3-16,48,44,42,48,44,42,99,99,97,29.54,29.27,6,3,26,0.31
2013-3-17,45,39,31,45,39,31,99,99,96,29.31,29.15,4,1,16,0.38
2013-3-18,46,37,29,46,37,29,99,99,99,29.34,29.18,1,0,7,0.36
2013-3-19,49,41,33,44,38,33,99,92,71,29.49,29.34,4,1,10,0.02
2013-3-20,46,40,34,42,38,34,99,95,76,29.99,29.49,3,1,9,0.00
2013-3-21,46,40,35,38,36,34,99,86,67,30.00,29.89,6,3,22,0.07
2013-3-22,45,39,36,39,38,36,99,93,77,29.88,29.70,5,3,22,0.28
2013-3-23,38,35,33,38,35,33,99,99,99,29.85,29.72,3,1,15,0.58
2013-3-24,34,33,32,34,30,25,99,88,69,29.92,29.83,2,1,14,0.00
2013-3-25,36,34,33,27,26,25,75,71,68,29.94,29.90,3,2,17,0.00
2013-3-26,36,35,33,27,25,24,75,69,63,29.92,29.87,3,2,13,0.00
2013-3-27,42,36,31,29,26,23,89,70,54,29.87,29.83,3,1,14,0.00
2013-3-28,42,36,28,32,26,21,99,71,52,29.93,29.81,2,1,9,0.00
2013-3-29,37,34,27,30,27,21,90,67,47,29.90,29.77,6,1,18,0.00
2013-3-30,43,37,31,32,30,27,99,77,55,29.96,29.76,3,1,10,0.00
2013-3-31,45,35,25,35,27,22,99,74,51,29.96,29.88,4,1,13,0.02
2013-4-1,44,37,32,31,27,21,87,68,46,29.88,29.82,8,2,22,0.00
2013-4-2,48,40,30,32,25,17,93,62,33,30.04,29.87,5,2,20,0.00
2013-4-3,44,42,36,29,26,18,82,58,52,30.04,29.97,4,3,21,0.00
2013-4-4,38,36,33,36,30,24,99,80,64,29.98,29.89,4,2,15,0.02
2013-4-5,47,39,35,32,29,22,85,68,41,30.10,29.88,4,3,18,0.02
2013-4-6,50,40,30,35,30,25,99,71,41,30.24,29.83,3,1,10,0.00
2013-4-7,52,40,27,38,28,21,99,67,33,29.88,29.49,4,1,15,0.00
2013-4-8,52,44,38,37,33,28,86,66,47,29.47,29.15,6,2,17,0.00
2013-4-9,49,43,38,46,42,37,99,95,85,29.16,28.98,3,1,17,0.12
2013-4-10,52,44,36,46,42,36,99,92,74,29.33,29.02,3,1,13,0.33
2013-4-11,57,48,43,52,46,43,99,96,77,29.11,28.96,3,1,16,0.13
2013-4-12,53,47,43,53,47,42,99,99,99,29.36,28.90,4,1,14,0.56
2013-4-13,53,47,36,52,47,36,99,98,92,29.51,29.36,5,2,18,0.15
2013-4-14,68,58,51,56,53,49,99,84,63,29.57,29.50,7,4,24,0.00
2013-4-15,62,55,49,53,50,47,99,86,71,29.69,29.55,6,3,18,0.00
2013-4-16,62,54,48,53,49,46,99,83,57,29.71,29.51,6,3,25,0.00
2013-4-17,66,55,47,56,52,46,99,91,66,29.70,29.47,6,2,24,0.00
2013-4-18,60,58,56,45,42,41,99,75,56,30.08,29.90,8,4,27,0.23
2013-4-19,58,56,42,44,41,36,98,76,48,30.49,30.08,4,2,15,0.00
2013-4-20,58,46,32,43,33,27,99,67,33,30.52,30.35,4,1,16,0.00
2013-4-21,60,46,29,43,36,28,99,72,39,30.35,30.02,4,1,14,0.00
2013-4-22,61,51,42,51,46,41,99,84,54,30.02,29.95,5,2,18,0.00
2013-4-23,70,59,48,53,50,48,99,76,51,30.21,29.96,4,2,14,0.00
2013-4-24,69,58,46,59,53,45,99,85,68,30.26,30.18,4,2,14,0.00
2013-4-25,74,60,50,61,53,49,99,82,51,30.25,30.02,6,2,22,0.00
2013-4-26,56,48,38,51,41,33,99,78,48,30.03,29.90,5,1,14,0.17
2013-4-27,53,42,32,47,38,32,99,88,60,30.09,29.87,4,1,17,0.20
2013-4-28,54,44,30,49,36,30,99,77,46,30.09,29.89,4,2,19,0.00
2013-4-29,58,48,43,46,39,34,99,73,47,30.16,29.87,4,2,15,0.00
2013-4-30,61,48,34,42,37,33,99,69,39,30.30,30.16,4,1,17,0.00
2013-5-1,63,50,35,45,38,32,99,69,36,30.29,30.14,3,1,12,0.00
2013-5-2,64,51,35,36,28,18,95,52,21,30.21,30.14,3,1,11,0.00
2013-5-3,69,53,35,46,40,33,99,65,36,30.17,30.04,4,1,14,0.00
2013-5-4,64,54,44,54,44,34,96,71,43,30.13,29.98,6,3,20,0.00
2013-5-5,68,57,42,54,49,40,99,76,59,30.19,30.13,2,1,10,0.00
2013-5-6,72,60,50,54,50,44,99,72,48,30.16,30.05,3,1,11,0.00
2013-5-7,75,60,42,52,47,41,99,68,40,30.07,29.85,4,1,12,0.00
2013-5-8,62,57,49,58,53,48,99,88,71,29.84,29.68,5,2,21,0.05
2013-5-9,60,51,43,52,46,43,99,86,56,29.83,29.67,9,4,36,0.05
2013-5-10,53,52,48,51,50,48,99,84,54,29.93,29.68,6,4,21,0.03
2013-5-11,57,50,41,55,46,40,99,90,61,29.91,29.79,6,2,21,0.33
2013-5-12,60,50,39,52,46,39,99,88,55,30.01,29.90,5,2,20,0.03
2013-5-13,60,53,47,52,46,40,99,79,50,29.91,29.81,6,3,22,0.03
2013-5-14,54,48,44,49,46,42,99,92,66,29.81,29.19,4,2,17,0.43
2013-5-15,58,48,41,49,44,40,99,87,57,29.54,29.13,8,3,29,0.18
2013-5-16,62,50,34,53,42,34,99,77,48,29.55,29.46,3,0,11,0.02
2013-5-17,56,49,37,50,45,37,99,86,71,29.80,29.55,2,0,7,0.00
2013-5-18,62,54,46,51,47,45,99,81,60,29.79,29.71,2,1,10,0.00
2013-5-19,69,56,45,53,50,45,99,80,57,29.88,29.77,3,1,14,0.00
2013-5-20,64,58,51,62,57,50,99,97,93,29.90,29.83,2,1,11,0.02
2013-5-21,61,57,51,60,55,51,99,94,78,30.06,29.90,3,1,11,0.00
2013-5-22,60,54,46,53,48,37,99,83,59,30.09,30.01,3,1,14,0.00
2013-5-23,55,47,41,44,40,36,92,76,50,30.01,29.88,4,2,20,0.03
2013-5-24,48,44,40,48,43,39,99,97,85,30.00,29.62,4,1,17,0.43
2013-5-25,62,51,41,48,43,40,99,78,49,30.16,30.01,2,1,10,0.00
2013-5-26,70,56,38,48,42,38,99,67,39,30.13,29.96,3,1,12,0.00
2013-5-27,63,53,40,47,41,37,98,65,36,29.95,29.65,8,3,27,0.00
2013-5-28,54,51,49,53,51,49,99,99,99,29.56,29.47,1,0,5,0.91
2013-5-29,60,52,44,56,51,44,99,97,79,29.76,29.55,2,1,9,0.00
2013-5-30,61,55,52,59,55,52,99,98,91,29.99,29.73,2,1,11,0.21
2013-5-31,73,61,52,62,56,52,99,85,63,30.12,29.98,2,1,10,0.02
2013-6-1,69,58,48,53,48,45,98,73,52,30.30,30.12,4,1,14,0.00
2013-6-2,69,56,43,51,46,43,99,71,47,30.43,30.30,2,1,11,0.00
2013-6-3,72,56,42,51,46,42,99,72,41,30.47,30.39,3,1,13,0.00
2013-6-4,73,52,40,51,44,39,99,79,41,30.41,30.20,3,1,14,0.00
2013-6-5,58,55,49,52,49,47,98,72,47,30.21,30.07,4,1,14,0.00
2013-6-6,76,59,47,56,51,47,99,73,50,30.18,30.11,4,1,15,0.00
2013-6-7,69,59,49,61,53,46,99,81,58,30.22,30.15,2,1,14,0.23
2013-6-8,70,59,48,53,49,47,98,72,53,30.21,30.05,3,1,17,0.00
2013-6-9,62,56,51,51,48,46,88,77,65,30.06,29.95,2,1,11,0.00
2013-6-10,64,56,46,51,47,44,97,74,59,29.99,29.94,2,0,8,0.00
2013-6-11,63,56,44,63,56,44,99,98,89,29.96,29.88,4,2,17,0.02
2013-6-12,63,60,56,62,59,55,99,98,92,29.89,29.79,6,4,23,0.08
2013-6-13,65,58,52,60,55,49,99,89,68,30.04,29.77,7,4,24,0.00
2013-6-14,53,52,46,53,50,46,99,82,51,30.06,29.80,6,2,19,0.00
2013-6-15,66,57,50,59,53,48,99,88,56,29.88,29.69,7,4,22,0.17
2013-6-16,64,59,52,56,53,49,99,81,67,29.96,29.87,3,1,11,0.02
2013-6-17,72,62,52,59,54,51,99,79,55,29.96,29.90,4,1,14,0.02
2013-6-18,72,64,56,67,61,54,99,91,76,29.97,29.88,2,1,11,0.00
2013-6-19,84,70,58,69,64,58,99,83,55,29.97,29.91,3,0,11,0.02
2013-6-20,70,65,57,68,64,57,99,95,87,29.95,29.79,3,1,11,0.00
2013-6-21,73,62,55,66,61,55,99,94,75,29.88,29.77,5,2,14,0.00
2013-6-22,67,58,53,63,56,53,99,92,75,29.86,29.66,7,4,27,0.10
2013-6-23,65,59,53,58,55,53,99,89,70,30.02,29.66,5,3,17,0.03
2013-6-24,64,57,48,53,50,47,99,80,57,30.29,30.03,3,1,14,0.00
2013-6-25,72,60,48,55,50,47,99,73,48,30.42,30.28,2,0,8,0.00
2013-6-26,54,52,46,54,52,45,99,74,52,30.43,30.35,2,1,10,0.00
2013-6-27,73,60,51,57,53,49,99,78,51,30.37,30.18,2,1,14,0.08
2013-6-28,73,64,54,69,62,53,99,97,87,30.17,30.05,3,1,11,0.08
2013-6-29,74,70,65,67,60,52,99,73,51,30.25,30.08,3,1,14,0.00
2013-6-30,82,69,57,66,60,54,99,78,55,30.25,30.07,5,2,20,0.00
2013-7-1,72,62,55,57,54,49,99,75,53,30.08,29.99,4,2,13,0.00
2013-7-2,64,58,50,59,54,50,99,88,69,30.00,29.66,5,2,17,0.00
2013-7-3,71,63,57,64,60,56,99,92,73,30.01,29.61,4,2,14,0.07
2013-7-4,75,65,52,68,61,52,99,88,69,30.26,30.01,4,2,15,0.00
2013-7-5,82,69,50,66,59,50,99,73,50,30.41,30.26,4,1,10,0.00
2013-7-6,58,58,58,56,56,56,93,93,93,30.41,30.41,0,0,0,0.00
2013-7-7,58,58,58,56,56,56,93,93,93,30.41,30.41,0,0,0,0.00
2013-7-8,58,58,58,56,56,56,93,93,93,30.41,30.41,0,0,0,0.00
2013-7-9,84,68,58,56,52,45,93,65,30,30.41,30.25,2,1,13,0.00
2013-7-10,83,66,50,63,56,50,99,73,47,30.28,30.25,3,1,14,0.00
2013-7-11,76,61,53,55,50,47,90,70,46,30.30,30.20,3,1,12,0.00
2013-7-12,78,65,52,61,56,52,99,77,55,30.30,30.21,2,0,10,0.00
2013-7-13,92,75,57,72,64,57,99,74,48,30.25,30.19,3,1,9,0.00
2013-7-14,90,80,60,71,65,60,99,64,43,30.25,30.17,3,1,9,0.00
2013-7-15,91,75,59,62,57,49,99,60,29,30.23,30.16,2,0,8,0.00
2013-7-16,91,76,59,68,62,58,99,67,43,30.22,30.15,3,1,10,0.00
2013-7-17,93,76,59,69,62,57,98,66,43,30.27,30.19,4,1,12,0.00
2013-7-18,90,81,64,64,61,59,83,55,44,30.31,30.24,3,2,12,0.00
2013-7-19,87,72,54,63,59,53,99,69,44,30.30,30.19,6,2,18,0.00
2013-7-20,77,69,60,65,63,60,99,83,65,30.24,30.14,3,1,12,0.00
2013-7-21,81,70,63,66,63,58,94,80,59,30.17,30.02,4,1,11,0.00
2013-7-22,96,78,64,74,67,63,99,75,43,30.06,29.94,4,1,14,0.00
2013-7-23,88,74,64,76,68,62,99,85,63,29.96,29.88,3,1,11,0.10
2013-7-24,85,72,58,67,63,57,99,80,48,29.97,29.92,4,2,16,0.00
2013-7-25,79,75,59,72,64,59,99,88,60,29.94,29.87,5,2,17,0.30
2013-7-26,84,68,53,65,59,53,99,76,49,29.93,29.85,4,1,10,0.00
2013-7-27,88,68,53,69,60,53,99,81,40,29.86,29.59,2,1,13,0.43
2013-7-28,79,67,58,66,62,58,99,85,62,29.78,29.60,6,3,21,0.25
2013-7-29,76,65,59,67,62,59,99,90,67,29.98,29.77,7,3,23,0.17
2013-7-30,70,64,58,70,64,58,99,99,98,29.97,29.85,4,2,11,0.13
2013-7-31,75,68,60,71,66,60,99,94,84,30.00,29.94,6,3,17,0.00
2013-8-1,92,75,60,76,67,59,99,80,52,29.94,29.68,4,1,18,0.00
2013-8-2,79,70,63,70,64,59,99,83,57,29.82,29.75,6,3,18,0.03
2013-8-3,77,66,58,65,60,56,99,83,57,30.10,29.81,8,3,20,0.02
2013-8-4,77,71,59,64,61,57,99,72,59,30.10,30.02,7,3,19,0.00
2013-8-5,76,66,59,66,63,59,99,91,66,30.02,29.76,7,1,18,0.31
2013-8-6,77,60,51,65,55,51,99,88,48,30.03,29.91,2,0,6,0.02
2013-8-7,77,61,52,63,55,51,99,86,50,30.04,29.90,2,0,8,0.00
2013-8-8,81,65,48,61,56,47,99,78,45,30.12,30.03,4,1,14,0.00
2013-8-9,80,65,60,68,60,51,99,87,52,30.18,30.02,4,1,13,0.05
2013-8-10,76,61,52,58,53,49,97,77,43,30.20,30.13,3,1,14,0.00
2013-8-11,77,65,57,63,56,50,98,76,49,30.14,30.01,4,2,14,0.00
2013-8-12,74,60,53,58,53,48,99,82,45,30.10,29.99,3,1,14,0.00
2013-8-13,73,55,47,60,51,46,99,88,50,30.20,30.09,3,1,11,0.02
2013-8-14,75,58,49,64,55,48,99,92,59,30.21,30.14,4,1,14,0.08
2013-8-15,77,65,61,70,64,61,99,95,72,30.14,30.00,6,2,19,0.02
2013-8-16,73,64,60,70,64,60,99,98,87,30.01,29.94,4,2,14,0.05
2013-8-17,69,60,55,64,59,55,99,97,77,29.99,29.73,7,2,23,0.02
2013-8-18,77,64,59,65,62,56,99,91,57,29.91,29.72,4,2,14,0.00
2013-8-19,77,60,51,61,54,50,99,83,51,30.31,29.91,3,1,11,0.00
2013-8-20,83,65,50,61,55,49,99,75,44,30.36,30.29,2,1,10,0.00
2013-8-21,82,67,51,63,58,51,99,76,46,30.30,30.14,3,1,11,0.00
2013-8-22,75,64,61,74,63,60,99,98,86,30.16,30.05,2,0,8,0.55
2013-8-23,86,70,58,72,64,58,99,85,53,30.05,29.85,3,1,12,0.02
2013-8-24,66,63,58,66,62,58,99,99,99,29.87,29.81,2,1,11,0.35
2013-8-25,77,60,54,71,59,54,99,95,68,30.04,29.83,3,1,13,0.13
2013-8-26,82,68,55,68,61,53,99,82,54,30.09,30.03,2,0,10,0.00
2013-8-27,79,61,48,65,54,48,99,81,52,30.12,30.04,2,0,8,0.00
2013-8-28,82,63,48,63,55,47,99,79,46,30.21,30.12,2,0,6,0.00
2013-8-29,80,66,54,64,59,54,99,82,52,30.19,30.13,3,1,11,0.00
2013-8-30,78,72,58,67,64,58,99,78,63,30.14,30.04,5,2,16,0.00
2013-8-31,75,63,50,62,52,44,99,71,45,30.40,30.12,3,1,12,0.00
2013-9-1,73,58,43,55,50,43,99,77,52,30.43,30.34,3,1,12,0.00
2013-9-2,81,65,50,64,58,50,99,82,56,30.35,30.28,3,1,10,0.00
2013-9-3,79,65,53,68,62,53,99,90,66,30.35,30.26,2,0,6,0.00
2013-9-4,87,67,51,71,60,51,99,80,47,30.26,29.99,3,0,10,0.00
2013-9-5,90,69,52,70,59,52,99,76,49,29.99,29.76,2,0,7,0.00
2013-9-6,64,59,53,61,57,53,99,95,77,29.83,29.71,3,1,10,0.10
2013-9-7,68,56,48,59,52,48,99,88,60,30.03,29.82,5,1,20,0.05
2013-9-8,64,52,43,60,50,42,99,96,64,30.06,30.02,5,1,25,0.38
2013-9-9,59,52,45,59,52,45,99,99,99,30.05,29.95,1,0,8,0.38
2013-9-10,65,55,46,60,52,46,99,91,73,30.15,30.04,2,1,12,0.02
2013-9-11,66,58,52,58,55,52,99,91,70,30.17,30.10,2,1,12,0.15
2013-9-12,69,60,54,64,59,54,99,96,82,30.11,30.06,1,0,8,0.07
2013-9-13,70,64,61,70,63,61,99,99,99,30.06,29.86,3,1,10,0.84
2013-9-14,62,52,46,61,52,45,99,99,99,30.07,29.87,2,0,12,0.13
2013-9-15,61,52,41,60,51,41,99,97,76,30.06,29.55,6,2,21,0.15
2013-9-16,61,52,45,52,46,42,99,84,59,29.65,29.57,5,2,22,0.00
2013-9-17,60,53,44,59,52,43,99,97,81,29.65,29.34,3,1,13,0.45
2013-9-18,62,55,45,58,52,45,99,92,69,29.86,29.40,3,1,11,0.05
2013-9-19,63,58,50,63,57,50,99,96,82,29.88,29.72,8,2,24,0.02
2013-9-20,70,56,47,59,53,46,99,90,62,30.18,29.87,3,1,8,0.00
2013-9-21,68,58,48,66,58,48,99,98,93,30.30,30.17,5,1,11,0.00
2013-9-22,69,63,55,68,62,55,99,99,94,30.37,30.29,1,0,5,0.00
2013-9-23,67,60,52,66,60,52,99,99,96,30.33,30.11,1,0,5,0.00
2013-9-24,71,55,48,68,54,48,99,98,89,30.11,29.92,1,0,6,0.00
2013-9-25,74,62,54,68,61,54,99,95,77,29.92,29.82,1,0,7,0.17
2013-9-26,68,60,52,62,58,52,99,92,67,30.05,29.89,3,1,10,0.05
2013-9-27,59,54,48,59,54,48,99,91,67,30.04,29.91,3,1,12,0.00
2013-9-28,68,60,51,65,58,51,99,95,79,29.91,29.73,3,1,13,0.03
2013-9-29,71,63,59,60,58,57,99,92,69,29.73,29.69,4,1,14,0.00
2013-9-30,68,60,54,63,58,54,99,94,78,29.77,29.66,3,1,10,0.00
2013-10-1,63,60,53,63,58,53,99,95,87,29.80,29.75,4,2,13,0.00
2013-10-2,74,62,57,69,61,56,99,95,81,29.88,29.77,4,2,13,0.00
2013-10-3,67,62,56,67,61,56,99,99,99,29.86,29.70,4,1,13,0.00
2013-10-4,71,64,56,69,63,56,99,97,84,29.94,29.67,5,2,18,0.00
2013-10-5,68,60,54,67,59,54,99,98,91,30.24,29.94,1,0,4,0.00
2013-10-6,73,55,43,60,52,43,99,91,59,30.29,30.24,2,0,8,0.00
2013-10-7,73,59,48,64,57,48,99,94,69,30.29,30.24,3,1,9,0.00
2013-10-8,72,62,53,65,60,53,99,96,75,30.27,30.22,3,1,12,0.00
2013-10-9,67,56,45,62,53,42,99,90,76,30.23,29.98,3,1,12,0.00
2013-10-10,56,48,43,46,43,41,97,82,61,30.11,30.00,4,2,17,0.00
2013-10-11,57,52,47,55,51,43,99,96,81,30.10,29.94,3,2,15,0.00
2013-10-12,63,52,44,55,50,44,99,94,65,30.10,29.94,3,1,11,0.00
2013-10-13,53,50,46,52,50,46,99,99,99,29.99,29.76,2,1,11,0.00
2013-10-14,55,49,46,54,49,46,99,99,97,29.77,29.69,3,2,12,0.00
2013-10-15,57,49,41,56,48,41,99,98,91,29.94,29.74,2,0,8,0.00
2013-10-16,62,50,39,62,50,39,99,99,98,29.94,29.67,3,1,14,0.00
2013-10-17,65,56,51,63,56,50,99,98,89,29.99,29.81,4,1,13,0.00
2013-10-18,66,56,47,64,56,47,99,99,94,30.00,29.76,4,1,13,0.00
2013-10-19,65,59,52,64,58,52,99,99,99,29.75,29.63,5,1,16,0.00
2013-10-20,62,57,52,62,57,52,99,99,99,29.74,29.62,6,2,17,0.84
2013-10-21,64,60,54,64,60,54,99,99,99,29.74,29.59,7,3,24,0.10
2013-10-22,66,61,55,66,61,55,99,99,99,29.59,29.32,4,2,17,0.83
2013-10-23,65,56,46,61,55,45,99,96,76,29.85,29.24,6,3,24,0.17
2013-10-24,68,51,39,62,51,39,99,98,81,29.96,29.80,3,1,11,0.02
2013-10-25,56,55,55,56,55,55,99,99,95,29.81,29.57,6,3,20,0.15
2013-10-26,59,55,55,59,55,55,99,99,96,29.70,29.48,7,4,24,0.13
2013-10-27,63,57,52,58,55,51,99,96,78,29.49,29.22,8,4,26,0.96
2013-10-28,61,54,46,60,52,45,99,97,80,29.58,28.90,11,4,34,1.01
2013-10-29,59,46,40,52,45,40,99,94,68,30.06,29.59,3,1,14,0.00
2013-10-30,61,43,34,56,42,34,99,97,79,30.16,30.05,5,1,17,0.02
2013-10-31,56,54,53,56,54,53,99,99,99,30.05,29.92,5,2,19,0.26
2013-11-1,55,54,52,55,54,52,99,99,99,29.92,29.86,4,2,15,0.00